This demonstration page uses our WeatherBlox Daily Observations layout. Learn more.

Left ArrowRight Arrow

36.17497, -115.13722

Hourly Observations for January 6, 2021

Temp ( °F °C ) Dew Point ( °F °C ) Humidity (%) Winds ( mph kmh ) Pressure ( in mb ) Visibility ( mi km ) Precip ( " mm )
12:53 am 00:53 Clear 45 7.2 17 -8.3 33 33 WNW 9 15 30.25 1025 10 16 N/A
1:53 am 01:53 Clear 42 5.6 17 -8.3 36 36 N N/A 30.26 1025 10 16 N/A
2:53 am 02:53 Clear 46 7.8 18 -7.8 32 32 N 6 9 30.26 1025 10 16 N/A
3:53 am 03:53 Clear 43 6.1 17 -8.3 35 35 WNW 13 20 30.24 1024 10 16 N/A
4:53 am 04:53 Clear 43 6.1 18 -7.8 37 37 NW 7 11 30.26 1025 10 16 N/A
5:53 am 05:53 Clear 40 4.4 18 -7.8 41 41 WNW 8 13 30.28 1025 10 16 N/A
6:53 am 06:53 Sunny 41 5 18 -7.8 39 39 VRB 3 6 30.29 1026 10 16 N/A
7:53 am 07:53 Sunny 41 5 19 -7.2 41 41 N N/A 30.30 1026 10 16 N/A
8:53 am 08:53 Sunny 46 7.8 20 -6.7 35 35 WNW 5 7 30.31 1027 10 16 N/A
9:53 am 09:53 Sunny 52 11.1 20 -6.7 28 28 N N/A 30.30 1026 10 16 N/A
10:53 am 10:53 Sunny 56 13.3 20 -6.7 24 24 E 3 6 30.27 1025 10 16 N/A
11:53 am 11:53 Sunny 55 12.8 21 -6.1 26 26 SE 3 6 30.23 1024 10 16 N/A
12:53 pm 12:53 Sunny 56 13.3 20 -6.7 24 24 SE 3 6 30.20 1023 10 16 N/A
1:53 pm 13:53 Sunny 58 14.4 20 -6.7 23 23 SE 3 6 30.18 1022 10 16 N/A
2:53 pm 14:53 Sunny 59 15 20 -6.7 22 22 N N/A 30.16 1021 10 16 N/A
3:53 pm 15:53 Sunny 59 15 20 -6.7 22 22 N N/A 30.16 1022 10 16 N/A
4:53 pm 16:53 Clear 57 13.9 20 -6.7 24 24 N N/A 30.17 1022 10 16 N/A
5:53 pm 17:53 Clear 54 12.2 20 -6.7 26 26 N N/A 30.18 1022 10 16 N/A
6:53 pm 18:53 Clear 51 10.6 22 -5.6 32 32 W 6 9 30.19 1022 10 16 N/A
7:53 pm 19:53 Clear 49 9.4 22 -5.6 35 35 NW 5 7 30.20 1023 10 16 N/A
8:53 pm 20:53 Clear 47 8.3 21 -6.1 36 36 WNW 5 7 30.19 1023 10 16 N/A
9:53 pm 21:53 Clear 47 8.3 22 -5.6 37 37 N N/A 30.18 1022 10 16 N/A
10:53 pm 22:53 Clear 44 6.7 21 -6.1 40 40 N N/A 30.18 1022 10 16 N/A
11:53 pm 23:53 Clear 42 5.6 21 -6.1 43 43 NW 8 13 30.18 1022 10 16 N/A

Powered by AerisWeather